CW2157 Weather Reports


Display with metric or nautical units.
time (UTC)temp
F
wind
direction
speed
MPH
gust
MPH
rain 1hr
in
rain 24hr
in
rain mn
in
humidity
%
barometer
mb
20260905232705 76 103 0.0 0.0 0.00 0.00 0.00 73 1009.2
20260905232205 77 103 0.0 1.0 0.00 0.00 0.00 71 1009.1
20260905231205 77 1 0.0 1.0 0.00 0.00 0.00 70 1009.1
20260905230705 77 1 0.0 0.0 0.00 0.00 0.00 70 1009.1
20260905230205 78 1 0.0 1.0 0.00 0.00 0.00 71 1009.2
20260905225706 78 5 0.0 1.0 0.00 0.00 0.00 70 1009.1
20260905225205 78 19 0.0 3.0 0.00 0.00 0.00 69 1009.0
20260905222705 78 9 2.0 3.0 0.00 0.00 0.00 67 1008.7
20260905222205 78 346 1.0 2.0 0.00 0.00 0.00 66 1008.7
20260905221205 79 6 2.0 6.0 0.00 0.00 0.00 66 1008.8
20260905220705 79 5 0.0 2.0 0.00 0.00 0.00 67 1008.7
20260905220205 79 5 0.0 2.0 0.00 0.00 0.00 68 1008.7
20260905215706 79 37 1.0 3.0 0.00 0.00 0.00 68 1008.7
20260905214705 79 42 1.0 3.0 0.00 0.00 0.00 65 1008.6
20260905214205 79 43 1.0 2.0 0.00 0.00 0.00 65 1008.6
20260905213205 80 329 0.0 3.0 0.00 0.00 0.00 63 1008.7
20260905212205 80 47 2.0 6.0 0.00 0.00 0.00 63 1008.5
20260905210705 82 54 5.0 9.0 0.00 0.00 0.00 62 1008.4
20260905205705 82 25 3.0 8.0 0.00 0.00 0.00 60 1008.3
20260905205205 83 31 3.0 8.0 0.00 0.00 0.00 61 1008.3
20260905204705 83 347 2.0 6.0 0.00 0.00 0.00 59 1008.4
20260905204206 83 23 3.0 10.0 0.00 0.00 0.00 60 1008.5
20260905203705 82 69 4.0 12.0 0.00 0.00 0.00 59 1008.5
20260905203205 82 64 7.0 12.0 0.00 0.00 0.00 60 1008.5
20260905202705 82 21 5.0 9.0 0.00 0.00 0.00 62 1008.5
20260905202205 81 32 3.0 8.0 0.00 0.00 0.00 62 1008.5
20260905201705 81 45 3.0 6.0 0.00 0.00 0.00 63 1008.4
20260905200705 81 8 3.0 9.0 0.00 0.00 0.00 61 1008.4
20260905200205 81 49 4.0 10.0 0.00 0.00 0.00 61 1008.4
20260905195205 81 55 5.0 10.0 0.00 0.00 0.00 62 1008.3
20260905194705 81 354 4.0 8.0 0.00 0.00 0.00 62 1008.3
20260905194205 81 18 3.0 8.0 0.00 0.00 0.00 61 1008.3
20260905193705 81 6 2.0 9.0 0.00 0.00 0.00 57 1008.3
20260905192705 82 351 6.0 9.0 0.00 0.00 0.00 62 1008.5
20260905192205 82 4 6.0 9.0 0.00 0.00 0.00 65 1008.5
20260905191705 82 72 7.0 12.0 0.00 0.00 0.00 66 1008.6
20260905191205 82 76 3.0 8.0 0.00 0.00 0.00 63 1008.8
20260905190705 82 83 3.0 7.0 0.00 0.00 0.00 62 1009.0
20260905190205 82 57 6.0 12.0 0.00 0.00 0.00 63 1009.0
20260905185705 82 41 4.0 9.0 0.00 0.00 0.00 67 1009.1
20260905185205 82 1 3.0 6.0 0.00 0.00 0.00 65 1009.3
20260905184705 82 22 3.0 8.0 0.00 0.00 0.00 63 1009.3
20260905184205 82 34 3.0 6.0 0.00 0.00 0.00 66 1009.3
20260905183705 82 36 2.0 5.0 0.00 0.00 0.00 64 1009.4
20260905183205 82 65 3.0 7.0 0.00 0.00 0.00 63 1009.5
20260905182205 83 60 2.0 6.0 0.00 0.00 0.00 65 1009.7
20260905181205 82 12 2.0 3.0 0.00 0.00 0.00 63 1009.9
20260905180705 82 8 2.0 3.0 0.00 0.00 0.00 66 1009.9
20260905175705 81 295 0.0 3.0 0.00 0.00 0.00 66 1010.0
20260905174705 81 2 0.0 3.0 0.00 0.00 0.00 66 1010.0
20260905174205 81 301 1.0 3.0 0.00 0.00 0.00 65 1010.0
20260905173705 81 311 2.0 5.0 0.00 0.00 0.00 67 1010.1
20260905172705 81 3 1.0 5.0 0.00 0.00 0.00 67 1010.0
20260905172205 81 12 4.0 6.0 0.00 0.00 0.00 64 1010.0
20260905171705 81 11 3.0 7.0 0.00 0.00 0.00 63 1010.0
20260905171205 81 3 2.0 6.0 0.00 0.00 0.00 63 1010.0
20260905170705 81 19 3.0 8.0 0.00 0.00 0.00 63 1009.9
20260905170205 81 30 4.0 8.0 0.00 0.00 0.00 66 1010.0
20260905165705 81 352 4.0 9.0 0.00 0.00 0.00 67 1010.0
20260905165205 81 37 3.0 9.0 0.00 0.00 0.00 65 1010.0
20260905164705 81 0 3.0 6.0 0.00 0.00 0.00 65 1010.0
20260905164205 81 21 3.0 9.0 0.00 0.00 0.00 65 1010.0
20260905163705 81 48 4.0 8.0 0.00 0.00 0.00 67 1010.0
20260905162705 81 337 4.0 8.0 0.00 0.00 0.00 63 1010.3
20260905161705 81 344 4.0 8.0 0.00 0.00 0.00 63 1010.4
20260905161205 82 350 4.0 8.0 0.00 0.00 0.00 63 1010.5
20260905160705 81 347 3.0 8.0 0.00 0.00 0.00 66 1010.4
20260905160205 81 7 3.0 8.0 0.00 0.00 0.00 68 1010.4
20260905155705 81 58 3.0 6.0 0.00 0.00 0.00 65 1010.4
20260905155205 81 338 3.0 9.0 0.00 0.00 0.00 65 1010.3
20260905154705 81 39 3.0 7.0 0.00 0.00 0.00 66 1010.4
20260905154205 81 55 4.0 7.0 0.00 0.00 0.00 67 1010.4
20260905153705 81 46 3.0 12.0 0.00 0.00 0.00 64 1010.3
20260905153205 81 13 3.0 8.0 0.00 0.00 0.00 63 1010.4
20260905152205 82 29 3.0 6.0 0.00 0.00 0.00 67 1010.4
20260905151705 82 16 3.0 9.0 0.00 0.00 0.00 63 1010.5
20260905151205 82 16 2.0 7.0 0.00 0.00 0.00 67 1010.4
20260905150705 82 25 1.0 3.0 0.00 0.00 0.00 66 1010.5
20260905150204 82 24 4.0 9.0 0.00 0.00 0.00 66 1010.6
20260905145704 82 22 2.0 9.0 0.00 0.00 0.00 62 1010.5
20260905145204 82 64 5.0 9.0 0.00 0.00 0.00 64 1010.5
20260905144705 82 54 5.0 13.0 0.00 0.00 0.00 63 1010.4
20260905143705 82 58 6.0 10.0 0.00 0.00 0.00 68 1010.1
20260905143205 82 23 6.0 12.0 0.00 0.00 0.00 65 1010.0
20260905142705 82 52 4.0 12.0 0.00 0.00 0.00 66 1010.0
20260905141705 82 60 5.0 10.0 0.00 0.00 0.00 69 1010.2
20260905141205 82 353 4.0 10.0 0.00 0.00 0.00 69 1010.2
20260905140704 82 12 6.0 12.0 0.00 0.00 0.00 68 1010.1
20260905140205 82 50 6.0 10.0 0.00 0.00 0.00 70 1010.0
20260905135705 82 4 4.0 8.0 0.00 0.00 0.00 67 1010.1
20260905135204 81 16 5.0 12.0 0.00 0.00 0.00 70 1010.0
20260905134705 81 50 4.0 9.0 0.00 0.00 0.00 71 1010.0
20260905134205 80 23 5.0 9.0 0.00 0.00 0.00 76 1009.9
20260905133705 80 67 3.0 7.0 0.00 0.00 0.00 75 1009.9
20260905133205 79 45 3.0 8.0 0.00 0.00 0.00 76 1010.1
20260905132705 79 5 3.0 7.0 0.00 0.00 0.00 75 1010.0
20260905132205 79 45 5.0 10.0 0.00 0.00 0.00 80 1009.9
20260905131205 78 54 5.0 9.0 0.00 0.00 0.00 78 1009.7
20260905130204 78 58 3.0 6.0 0.00 0.00 0.00 77 1009.7
20260905125705 79 52 4.0 8.0 0.00 0.00 0.00 77 1009.7
20260905125205 79 54 4.0 9.0 0.00 0.00 0.00 76 1009.8
20260905124704 79 12 3.0 8.0 0.00 0.00 0.00 76 1009.6
20260905124205 79 19 5.0 10.0 0.00 0.00 0.00 78 1009.7
20260905123705 79 67 4.0 9.0 0.00 0.00 0.00 77 1009.6
20260905122705 79 30 3.0 7.0 0.00 0.00 0.00 80 1009.5
20260905122205 79 33 5.0 8.0 0.00 0.00 0.00 82 1009.6
20260905121704 78 42 5.0 9.0 0.00 0.00 0.00 82 1009.5
20260905121205 78 61 3.0 6.0 0.00 0.00 0.00 83 1009.3
20260905120705 78 56 5.0 9.0 0.00 0.00 0.00 83 1009.3
20260905120205 78 37 4.0 6.0 0.00 0.00 0.00 84 1009.5
20260905115705 78 36 4.0 8.0 0.00 0.00 0.00 86 1009.4
20260905115205 78 34 2.0 5.0 0.00 0.00 0.00 86 1009.4
20260905114704 77 13 5.0 9.0 0.00 0.00 0.00 86 1009.4
20260905114204 77 51 4.0 9.0 0.00 0.00 0.00 87 1009.3
20260905112705 76 12 2.0 5.0 0.00 0.00 0.00 87 1009.0
20260905111704 76 333 3.0 8.0 0.00 0.00 0.00 87 1009.0
20260905111205 76 0 4.0 8.0 0.00 0.00 0.00 87 1009.0
20260905110205 76 7 2.0 3.0 0.00 0.00 0.00 88 1008.9
20260905105205 76 347 2.0 5.0 0.00 0.00 0.00 87 1008.6
20260905104705 76 9 1.0 5.0 0.00 0.00 0.00 87 1008.7
20260905104204 76 357 2.0 5.0 0.00 0.00 0.00 87 1008.8
20260905103205 76 355 3.0 6.0 0.00 0.00 0.00 87 1008.8
20260905102705 76 350 2.0 3.0 0.00 0.00 0.00 87 1008.5
20260905102205 76 339 3.0 5.0 0.00 0.00 0.00 87 1008.4
20260905101705 76 0 2.0 5.0 0.00 0.00 0.00 87 1008.3
20260905101205 76 352 3.0 6.0 0.00 0.00 0.00 86 1008.3
20260905100705 76 353 2.0 5.0 0.00 0.00 0.00 86 1008.3
20260905100204 76 345 2.0 6.0 0.00 0.00 0.00 86 1008.3
20260905095705 76 0 1.0 5.0 0.00 0.00 0.00 87 1008.2
20260905095204 76 5 2.0 5.0 0.00 0.00 0.00 87 1008.1
20260905094705 76 353 2.0 5.0 0.00 0.00 0.00 87 1008.1
20260905094205 76 352 3.0 5.0 0.00 0.00 0.00 87 1008.1
20260905093205 76 6 2.0 3.0 0.00 0.00 0.00 86 1008.0
20260905092705 76 4 2.0 3.0 0.00 0.00 0.00 86 1007.9
20260905092205 76 351 2.0 3.0 0.00 0.00 0.00 86 1008.0
20260905091705 76 8 2.0 3.0 0.00 0.00 0.00 86 1008.1
20260905091204 76 353 2.0 3.0 0.00 0.00 0.00 86 1008.1
20260905090705 76 354 1.0 3.0 0.00 0.00 0.00 86 1008.1
20260905085704 76 337 1.0 3.0 0.00 0.00 0.00 85 1008.2
20260905085204 76 355 2.0 3.0 0.00 0.00 0.00 85 1008.1
20260905084705 76 328 1.0 3.0 0.00 0.00 0.00 85 1008.1
20260905084205 76 351 1.0 3.0 0.00 0.00 0.00 85 1008.1
20260905083705 76 303 2.0 3.0 0.00 0.00 0.00 85 1008.0
20260905083205 76 303 2.0 5.0 0.00 0.00 0.00 85 1008.0
20260905082704 76 313 1.0 5.0 0.00 0.00 0.00 85 1008.0
20260905082205 76 337 2.0 9.0 0.00 0.00 0.00 85 1008.1
20260905081704 76 312 4.0 9.0 0.00 0.00 0.00 85 1008.1
20260905081204 77 352 3.0 9.0 0.00 0.00 0.00 85 1008.2
20260905080705 77 347 5.0 9.0 0.00 0.00 0.00 85 1008.4
20260905080205 77 341 2.0 9.0 0.00 0.00 0.00 85 1008.4
20260905075705 77 335 2.0 6.0 0.00 0.00 0.00 85 1008.5
20260905075204 77 330 2.0 10.0 0.00 0.00 0.00 86 1008.4
20260905074704 77 356 2.0 5.0 0.00 0.00 0.00 86 1008.5
20260905073704 77 336 2.0 7.0 0.00 0.00 0.00 86 1008.5
20260905072705 77 14 2.0 5.0 0.00 0.00 0.00 85 1008.6
20260905071705 77 305 2.0 8.0 0.00 0.00 0.00 86 1008.6
20260905071204 77 297 4.0 12.0 0.00 0.00 0.00 86 1008.6
20260905070705 77 196 1.0 8.0 0.00 0.00 0.00 86 1008.6
20260905070204 77 338 3.0 8.0 0.00 0.00 0.00 86 1008.6
20260905065704 77 324 3.0 12.0 0.00 0.00 0.00 86 1008.7
20260905065205 77 224 4.0 10.0 0.00 0.00 0.00 87 1008.8
20260905064705 76 273 3.0 7.0 0.00 0.00 0.00 87 1008.8
20260905064204 76 86 1.0 5.0 0.00 0.00 0.00 87 1008.8
20260905063704 76 271 5.0 8.0 0.00 0.00 0.00 87 1008.8
20260905063204 76 18 2.0 5.0 0.00 0.00 0.00 87 1008.9
20260905062204 76 243 2.0 10.0 0.00 0.01 0.00 87 1008.9
20260905061205 76 270 3.0 7.0 0.00 0.01 0.00 88 1009.0
20260905060205 76 243 2.0 6.0 0.00 0.01 0.00 88 1009.0
20260905055705 76 273 1.0 3.0 0.00 0.01 0.00 88 1009.0
20260905054704 76 233 0.0 3.0 0.00 0.03 0.00 88 1009.1
20260905054205 76 254 3.0 8.0 0.00 0.04 0.00 88 1009.2
20260905053705 76 313 2.0 6.0 0.00 0.04 0.00 89 1009.2
20260905053204 76 241 3.0 7.0 0.00 0.04 0.00 89 1009.3
20260905052705 76 259 2.0 5.0 0.00 0.04 0.00 89 1009.4
20260905052205 76 253 1.0 6.0 0.00 0.05 0.00 89 1009.4
20260905051705 76 243 2.0 5.0 0.00 0.06 0.00 89 1009.6
20260905050705 76 217 2.0 5.0 0.00 0.07 0.00 89 1009.6
20260905050205 76 217 1.0 3.0 0.00 0.08 0.00 89 1009.6
20260905045704 76 219 1.0 3.0 0.00 0.10 0.00 89 1009.6
20260905045204 76 242 2.0 5.0 0.00 0.13 0.00 89 1009.7
20260905044704 76 248 1.0 3.0 0.00 0.16 0.00 89 1009.7
20260905044204 76 194 1.0 3.0 0.00 0.23 0.00 89 1009.7
20260905042704 76 211 0.0 2.0 0.00 0.32 0.00 88 1009.7
20260905042205 76 296 0.0 3.0 0.00 0.32 0.00 88 1009.7
20260905041705 76 272 2.0 7.0 0.00 0.32 0.00 88 1009.8
20260905041204 77 286 2.0 3.0 0.00 0.32 0.00 88 1009.8
20260905040704 77 302 1.0 3.0 0.00 0.32 0.00 88 1009.9
20260905040205 77 235 1.0 3.0 0.00 0.32 0.00 88 1009.9
20260905035705 77 308 2.0 3.0 0.00 0.32 0.32 88 1010.0
20260905035205 77 274 1.0 7.0 0.00 0.32 0.32 88 1010.0
20260905034705 77 276 1.0 5.0 0.00 0.32 0.32 88 1010.0
20260905033705 77 230 2.0 7.0 0.00 0.32 0.32 87 1010.0
20260905033205 77 253 1.0 3.0 0.00 0.32 0.32 87 1010.0
20260905032205 77 238 2.0 3.0 0.00 0.32 0.32 87 1010.1
20260905031705 77 296 1.0 7.0 0.00 0.32 0.32 87 1010.0
20260905031204 77 282 0.0 3.0 0.00 0.32 0.32 87 1010.2
20260905030705 77 257 1.0 3.0 0.00 0.32 0.32 87 1010.2
20260905030205 77 300 1.0 6.0 0.00 0.32 0.32 87 1010.4
20260905025705 78 258 2.0 5.0 0.00 0.32 0.32 87 1010.3
20260905024704 78 232 3.0 7.0 0.00 0.32 0.32 87 1010.4
20260905023705 78 269 2.0 8.0 0.00 0.32 0.32 88 1010.4
20260905023204 78 261 3.0 6.0 0.00 0.32 0.32 88 1010.4
20260905022704 78 236 1.0 7.0 0.00 0.32 0.32 88 1010.4
20260905022204 78 224 1.0 7.0 0.00 0.32 0.32 88 1010.3
20260905021705 78 274 1.0 6.0 0.00 0.32 0.32 88 1010.4
20260905020205 78 306 2.0 3.0 0.00 0.32 0.32 90 1010.2
20260905015704 78 256 0.0 3.0 0.00 0.32 0.32 90 1010.2
20260905015205 78 259 1.0 5.0 0.00 0.32 0.32 90 1010.1
20260905014705 78 295 2.0 3.0 0.00 0.32 0.32 90 1010.0
20260905013705 78 238 3.0 7.0 0.00 0.32 0.32 90 1010.0
20260905013205 78 247 2.0 7.0 0.00 0.32 0.32 90 1010.0
20260905012705 78 234 3.0 7.0 0.00 0.32 0.32 90 1010.0
20260905012205 78 281 2.0 6.0 0.00 0.32 0.32 90 1009.9
20260905011704 78 247 4.0 6.0 0.00 0.32 0.32 90 1009.8
20260905005704 78 192 0.0 2.0 0.00 0.32 0.32 89 1009.9
20260905005205 78 178 0.0 0.0 0.00 0.32 0.32 89 1009.7
20260905004705 78 178 1.0 1.0 0.00 0.32 0.32 88 1009.7
20260905004204 78 178 1.0 3.0 0.00 0.32 0.32 88 1009.7
20260905003704 78 178 1.0 2.0 0.00 0.32 0.32 88 1009.5
20260905003205 79 178 1.0 2.0 0.00 0.32 0.32 88 1009.6
20260905002704 79 178 0.0 1.0 0.00 0.32 0.32 87 1009.6
20260905002205 79 178 0.0 2.0 0.00 0.32 0.32 87 1009.8
20260905001205 79 178 0.0 0.0 0.00 0.32 0.32 87 1009.7
20260905000704 79 178 0.0 0.0 0.00 0.32 0.32 87 1009.6
20260905000204 79 178 0.0 0.0 0.00 0.32 0.32 87 1009.5
20260904235705 79 178 0.0 0.0 0.00 0.32 0.32 86 1009.3
20260904235204 79 178 0.0 0.0 0.00 0.32 0.32 84 1009.3
20260904234704 80 178 0.0 0.0 0.00 0.32 0.32 84 1009.2
20260904233704 80 178 0.0 0.0 0.00 0.32 0.32 84 1009.1